Torna al catalogo

DELTA 1 DEB

AttivoSSO
NORAD 47114·DEBRIS·🇺🇸 United States

Lanciato Nov 6, 1973 da Vandenberg Space Force Base

Loading…

Prossimi Passaggi (prossime 24 ore)

TLE

In scadenzaSource: Space-Track

Epoca: Sep 6, 2026, 09:51 UTC

1 47114U 73086JF  26249.41075587 -.00000034  00000-0  57503-4 0  9993
2 47114 101.5032 126.4739 0096683   7.0668 353.1741 12.46374474576534

Traccia DELTA 1 DEB in tempo reale con AllMySat

Download on the App Store